Location: Boiro
(42.6475°N, 8.8834°W)
Time: 19:04:56
(UTC+01:00)

Tiros 1 - Pass Details

Date: 07 December 2021
Orbit: 630 x 663 km, 48.4° (Epoch: 20 January)

Event Time Altitude Azimuth Distance (km) Brightness Sun altitude
Rises 17:37:13 0° 204° (SSW) 2,900 11.7 3.0°
Reaches altitude 10° 17:39:52 10° 190° (S) 1,998 10.4 2.6°
Maximum altitude 17:43:33 24° 137° (SE) 1,307 8.7 2.0°
Drops below altitude 10° 17:47:16 10° 83° (E) 2,017 9.2 1.5°
Sets 17:49:56 0° 70° (ENE) 2,935 9.9 1.0°
